Regional Weather Roundup
Issued by NWS

Home | Current Version | Previous Version | Text Only | Print | Product List | Glossary Off
Versions: 1 2 3 4 5 6 7 8 9 10 11 12 13 14 15 16 17 18 19 20 21 22 23 24 25 26 27 28 29 30 31 32 33 34 35 36 37 38 39 40 41 42 43 44 45 46 47 48 49 50

000
ASUS43 KIND 202159
RWRIN

WEATHER ROUNDUP FOR INDIANA
NATIONAL WEATHER SERVICE INDIANAPOLIS IN
500 PM EST TUE FEB 20 2018

NOTE: "FAIR" INDICATES FEW OR NO CLOUDS BELOW 12,000 FEET WITH NO
SIGNIFICANT WEATHER AND/OR OBSTRUCTIONS TO VISIBILITY.

* - STATION DOES NOT REPORT WEATHER SUCH AS PRECIPITATION OR FOG.

+ - STATION NOT QUALITY CONTROLLED BY THE NATIONAL WEATHER SERVICE.
    USE DATA WITH CAUTION...ESPECIALLY DEWPOINT AND RELATIVE
    HUMIDITY OBSERVATIONS.

INZ001>003-010>013-019-020-202300-
NORTHWEST INDIANA

CITY           SKY/WX    TMP DP  RH WIND       PRES   REMARKS
GARY /AIRPORT/ LGT RAIN  57  57 100 S6        29.94R
MONTICELLO +   CLOUDY    66  60  81 SW14      29.94R
RENSSELAER +   LGT RAIN  55  52  88 W9G17     29.97R

$$

LMZ046-743>745-202300-
SOUTHERN LAKE MICHIGAN

STATION/POSITION TIME  TEMP    WIND        PRES    WAVE
                       AIR SEA DIR/SP/G            HT
                 (UTC) (F)     (DEG/KT/KT) (MB)    (FT)
MICHIGAN CITY    2130   45                   N/A

$$

INZ004-005-014>016-021>024-202300-
NORTH CENTRAL INDIANA

CITY           SKY/WX    TMP DP  RH WIND       PRES   REMARKS
ELKHART        LGT RAIN  63  59  88 SW12G17   29.93R
GOSHEN         LGT RAIN  63  60  90 S18       29.94R
PERU/GRISSOM   CLOUDY    69  63  82 S14       29.95S
SOUTH BEND     RAIN      63  60  90 SW18      29.94R FOG
WARSAW +       LGT RAIN  63  59  88 S7        29.95S

$$

INZ006>009-017-018-025>027-202300-
NORTHEAST INDIANA

CITY           SKY/WX    TMP DP  RH WIND       PRES   REMARKS
AUBURN +       FAIR      68  57  68 S12G18    29.98R
FORT WAYNE     CLOUDY    69  59  70 S12       29.99R
KENDALLVILLE + DRIZZLE   64  60  87 S9        29.97R

$$

INZ028-029-035-036-043>045-051>053-202300-
WEST CENTRAL INDIANA

CITY           SKY/WX    TMP DP  RH WIND       PRES   REMARKS
GREENCASTLE +  PTSUNNY   72  54  53 S13G23    30.01R
LAFAYETTE      CLOUDY    68  60  75 SW9G20    29.94S
TERRE HAUTE    CLOUDY    74  58  57 S16G29    29.99R

$$

INZ030>032-037>040-046>048-054>057-064-065-202300-
CENTRAL INDIANA

CITY           SKY/WX    TMP DP  RH WIND       PRES   REMARKS
COLUMBUS       PTSUNNY   75  46  35 S22G32    30.05S
GREENWOOD *+   FAIR      72 -27   2 S15G25    30.03S
INDIANAPOLIS   CLOUDY    74  55  51 S22G31    30.01S
-EAGLE CREEK   PTSUNNY   75  55  49 SW14G31   30.00S
KOKOMO +       PTSUNNY   70  59  68 S22       29.99R
MT COMFORT *+  FAIR      72  61  68 SW17      30.03S
SHELBYVILLE    FAIR      75  54  47 S14G26    30.03S

$$

INZ033-034-041-042-049-050-058-059-202300-
EAST CENTRAL INDIANA

CITY           SKY/WX    TMP DP  RH WIND       PRES   REMARKS
MUNCIE         FAIR      75  55  49 SW14G23   30.01R
RICHMOND +     FAIR      70  55  60 SW18      30.08S

$$

INZ060-061-067>069-081>083-085>088-202300-
SOUTHWEST INDIANA

CITY           SKY/WX    TMP DP  RH WIND       PRES   REMARKS
EVANSVILLE     PTSUNNY   75  56  51 S20G29    30.07R
HUNTINGBURG +  FAIR      75  56  51 S23G32    30.08

$$

INZ062-063-066-070>080-084-089>092-202300-
SOUTH CENTRAL AND SOUTHEAST INDIANA

CITY           SKY/WX    TMP DP  RH WIND       PRES   REMARKS
BLOOMINGTON    FAIR      75  55  49 SW18G31   30.03S
FRENCH LICK *+ FAIR      75  43  31 S10G21    30.07S
SEYMOUR +      FAIR      77  54  44 S17       30.07R

$$





USA.gov is the U.S. government's official web portal to all federal, state and local government web resources and services.